Regional Weather Roundup
Issued by NWS Northern Indiana

Home | Current Version | Previous Version | Graphics & Text | Print | Product List | Glossary On
Versions: 1 2 3 4 5 6 7 8 9 10 11 12 13 14 15 16 17 18 19 20 21 22 23 24 25 26 27 28 29 30 31 32 33 34 35 36 37 38 39 40 41 42 43 44 45 46 47 48 49 50
000
ASUS43 KIWX 300210
RWRIWX

KIWX WEATHER ROUNDUP
NATIONAL WEATHER SERVICE NORTHERN INDIANA
1000 PM EDT MON JUN 29 2015

NOTE: "FAIR" INDICATES FEW OR NO CLOUDS BELOW 12,000 FEET WITH NO
SIGNIFICANT WEATHER AND/OR OBSTRUCTIONS TO VISIBILITY.

* THESE STATIONS ARE NOT UNDER NWS QUALITY CONTROL. THEY ALSO MAY NOT
  REPORT WEATHER SUCH AS PRECIPITATION OR FOG.

INZ001>027-300300-
NORTHERN INDIANA

CITY           SKY/WX    TMP DP  RH WIND       PRES   REMARKS
GARY*          PTCLDY    68  68 100 CALM      29.80F
VALPARAISO     PTCLDY    66  63  90 SE6       29.81F
MICHIGAN CITY* CLOUDY    64  61  88 CALM      29.81F
LAPORTE*       MOCLDY    66  66 100 E6        29.82S
KNOX*          MOCLDY    64  63  94 E5        29.81S
SOUTH BEND     MOCLDY    65  59  81 E7        29.83S
GOSHEN         CLEAR     61  58  90 E5        29.83S
MONTICELLO*    PTCLDY    66  66 100 CALM      29.80S
LOGANSPORT*    MOCLDY    64  63  94 CALM      29.83R
ROCHESTER*     MOCLDY    64  63  94 E3        29.83R
WARSAW*          N/A     61  59  94 E3        29.83S
ANGOLA*        CLOUDY    63  52  67 CALM      29.84S
FORT WAYNE     CLOUDY    64  60  87 N3        29.83F
HUNTINGTON*    PTCLDY    61  60  96 CALM      29.83R
PERU/GRISSOM   MOCLDY    65  63  91 E5        29.81R
MARION*        MOCLDY    64  62  94 E5        29.83R

$$
INZ028>050-300300-
CENTRAL INDIANA

CITY           SKY/WX    TMP DP  RH WIND       PRES   REMARKS
LAFAYETTE      PTCLDY    65  64  97 W3        29.81R
KOKOMO*        MOCLDY    64  61  88 E5        29.82R
MUNCIE*        MOCLDY    67  62  84 E5        29.82S
INDIANAPOLIS   MOCLDY    70  64  81 W9        29.81S

$$
MIZ043>046-050>051-056>058-064>065-071>073-077>080-300300-
SOUTHWEST LOWER MICHIGAN

CITY           SKY/WX    TMP DP  RH WIND       PRES   REMARKS
BATTLE CREEK   CLOUDY    66  57  72 S5        29.85R
BENTON HARBOR  CLEAR     64  59  83 SE3       29.81S
COLDWATER*     CLOUDY    63  57  82 CALM      29.84S
HILLSDALE*     CLOUDY    63  62  97 CALM      29.85R
HOLLAND        CLEAR     66  58  75 S6        29.82S
GRAND RAPIDS   PTCLDY    65  58  78 S5        29.83R
KALAMAZOO      CLOUDY    65  57  75 VRB3      29.84R
STURGIS*       CLOUDY    63  59  88 CALM      29.83S
THREE RIVERS*  CLOUDY    64  58  82 CALM      29.84S

$$
OHZ001>008-015>018-024>025-300300-
NORTHWEST OHIO

CITY           SKY/WX    TMP DP  RH WIND       PRES   REMARKS
DEFIANCE       CLOUDY    63  59  87 CALM      29.83S
FINDLAY        CLOUDY    63  60  90 SE3       29.81F
TOLEDO EXPRESS CLOUDY    62  58  86 SE3       29.83S
TOLEDO METCALF CLOUDY    64  57  78 SE7       29.84S
LIMA           CLOUDY    63  61  93 CALM      29.82F

$$
AND FOR LAKE MICHIGAN COASTAL AND OPEN LAKE BUOY OBSERVATIONS

STATION/POSITION TEMP    WIND        PRES    VSBY  WAVE
                 AIR SEA DIR/SP/G                  HT/PER
                 (F)     (DEG/KT/KT) (MB)    (MI)  (FT/S)
CALUMET HARBOR    66      70/  3/  5   N/A
MICHIGAN CITY     68      70/  3/  5   N/A
BURNS HARBOR      67      60/  6/  6 1010.2R
SAINT JOSEPH      67     170/  2/  5 1010.5S
4 MI NW BRIDGMAN  66 65                N/A           0
MICHIGAN CITY     67 66  160/  6/  6   N/A           0
MICHIGAN CITY CG  68 70  290/  2       N/A       6   0

$$
&&


USA.gov is the U.S. government's official web portal to all federal, state and local government web resources and services.